ONEWEB-0143 (47289 NORAD) Tracking and Keplerian Element Data
This shows tracking and keplerian element data for the satellite.
Feedback or suggestion? Click here.
Element | Value |
Catalog | 47289 |
Name | ONEWEB-0143 |
Epoch Orbit | 509 |
Epoch Day | 20.90964329 |
Epoch Year | 2021 |
RAAN | 28.002 |
Inclination | 87.3799 |
Eccentricity | 0.001259 |
Argument of Perigee | 148.6097 |
Mean Anonmoly | 211.5889 |
Mean Motion | 14.97462918 |
Decay Rate | -0.00405691 |
L1 | 1 47289U 20100AH 21020.90964329 -.00405691 00000-0 -36875-1 0 9997 |
L2 | 2 47289 87.3799 28.0020 0012590 148.6097 211.5889 14.97462918 5098 |
Live tracking and technical data element details for ONEWEB-0143 (NORAD 47289). ONEWEB-0143 can be tracked NOW for your location showing map with azimuth and elevation plus other details from your city location.
Track the satellite on the map from your city or location and see movement details for azimuth, elevation, latitude, longitude, range, height, and movement on the map or in text.
IsCatalogInMostPopularTable: catalog: 47289, numindb: 14
Update: records affected: 1
GetName: 47289 ONEWEB-0143
Hit Count: updated at: Fri, 22 Jan 2021 15:09:18 GMT